Weather History for KUNI - January, 2013

Change the Weather History Date:

Monday, January 7, 2013

  Actual Average (KPKB) Record (KPKB)
Temperature  
Mean Temperature 28 °F 32 °F  
Max Temperature 36 °F 40 °F 69 °F (2008)
Min Temperature 21 °F 24 °F -6 °F (2014)
Degree Days  
Heating Degree Days 36 33  
Month to date heating degree days 231  
Cooling Degree Days 0 0  
Month to date cooling degree days 0  
Year to date cooling degree days 0  
Moisture  
Dew Point 24 °F    
Average Humidity 78    
Maximum Humidity 93    
Minimum Humidity 61    
Precipitation  
Precipitation 0.00 in 0.10 in 0.63 in (2009)
Sea Level Pressure  
Sea Level Pressure 30.38 in    
Wind  
Wind Speed 4 mph (SW)    
Max Wind Speed 9 mph    
Max Gust Speed -    
Visibility 7 miles    
Events      
T = Trace of Precipitation, MM = Missing Value Source: NWS Daily Summary

Daily Weather History Graph

Daily Weather History Graph

Search for Another Location

Airport or City:

Trip Planner

Search our weather history database for the weather conditions in past years. The results will help you decide how hot, cold, wet, or windy it might be!

Date:

Astronomy

Jan. 07, 2013 Rise Set
Actual Time 7:48 AM EST 5:22 PM EST
Civil Twilight 7:18 AM EST 5:52 PM EST
Nautical Twilight 6:45 AM EST 6:25 PM EST
Astronomical Twilight 6:13 AM EST 6:57 PM EST
Moon 3:11 AM EST (1/7) 1:32 PM EST (1/7)
Length of Visible Light 10h 33m
Length of Day
9h 33m
Waning Crescent, 23% of the Moon is Illuminated
Jan 7
Waning Crescent
Jan 11
New
Jan 18
First Quarter
Jan 26
Full
Feb 3
Last Quarter

Hourly Weather History & Observations

Time (EST) Temp. Windchill Dew Point Humidity Pressure Visibility Wind Dir Wind Speed Gust Speed Precip Events Conditions
12:15 AM 29.1 °F 21.3 °F 23.4 °F 79% 30.32 in 5.0 mi WNW 8.1 mph - N/A   Haze
12:35 AM 28.9 °F 21.9 °F 23.7 °F 81% 30.32 in 5.0 mi WNW 6.9 mph - N/A   Haze
12:55 AM 28.9 °F 23.9 °F 23.9 °F 81% 30.32 in 5.0 mi WNW 4.6 mph - N/A   Haze
1:15 AM 29.1 °F 20.6 °F 23.9 °F 81% 30.33 in 5.0 mi WNW 9.2 mph - N/A   Haze
1:35 AM 29.1 °F 23.0 °F 24.1 °F 81% 30.34 in 5.0 mi West 5.8 mph - N/A   Haze
1:55 AM 29.1 °F 24.1 °F 23.9 °F 81% 30.34 in 5.0 mi West 4.6 mph - N/A   Haze
2:15 AM 29.1 °F 24.1 °F 24.3 °F 82% 30.35 in 5.0 mi West 4.6 mph - N/A   Haze
2:35 AM 29.3 °F 24.3 °F 24.3 °F 81% 30.35 in 5.0 mi West 4.6 mph - N/A   Haze
2:55 AM 29.3 °F 23.2 °F 24.3 °F 81% 30.36 in 5.0 mi West 5.8 mph - N/A   Haze
3:15 AM 29.3 °F 25.6 °F 24.4 °F 82% 30.36 in 5.0 mi West 3.5 mph - N/A   Haze
3:35 AM 29.1 °F - 24.3 °F 82% 30.37 in 5.0 mi Calm Calm - N/A   Haze
3:55 AM 29.1 °F - 24.1 °F 81% 30.36 in 5.0 mi Calm Calm - N/A   Haze
4:15 AM 29.3 °F 25.6 °F 24.4 °F 82% 30.36 in 5.0 mi WSW 3.5 mph - N/A   Haze
4:35 AM 29.3 °F 24.3 °F 24.8 °F 83% 30.37 in 5.0 mi WSW 4.6 mph - N/A   Overcast
4:55 AM 29.1 °F 25.4 °F 24.6 °F 83% 30.37 in 5.0 mi WSW 3.5 mph - N/A   Haze
5:15 AM 29.1 °F 25.4 °F 24.8 °F 84% 30.38 in 5.0 mi West 3.5 mph - N/A   Overcast
5:35 AM 29.1 °F 25.4 °F 24.4 °F 83% 30.38 in 5.0 mi West 3.5 mph - N/A   Haze
5:55 AM 29.3 °F 25.6 °F 24.3 °F 81% 30.39 in 5.0 mi West 3.5 mph - N/A   Haze
6:15 AM 29.1 °F 25.4 °F 24.6 °F 83% 30.39 in 5.0 mi West 3.5 mph - N/A   Haze
6:55 AM 29.3 °F 25.6 °F 24.4 °F 82% 30.41 in 5.0 mi WSW 3.5 mph - N/A   Haze
7:15 AM 29.3 °F 24.3 °F 24.4 °F 82% 30.42 in 5.0 mi WSW 4.6 mph - N/A   Haze
7:35 AM 29.3 °F - 24.6 °F 83% 30.42 in 5.0 mi Calm Calm - N/A   Haze
7:55 AM 29.3 °F - 24.8 °F 83% 30.43 in 5.0 mi Calm Calm - N/A   Overcast
8:15 AM 29.3 °F - 24.6 °F 83% 30.44 in 5.0 mi Calm Calm - N/A   Overcast
8:35 AM 29.3 °F - 24.8 °F 83% 30.46 in 5.0 mi Calm Calm - N/A   Overcast
8:55 AM 29.8 °F - 25.0 °F 82% 30.47 in 5.0 mi Calm Calm - N/A   Haze
9:35 AM 30.2 °F - 25.2 °F 82% 30.47 in 5.0 mi Calm Calm - N/A   Haze
9:55 AM 30.6 °F - 25.3 °F 81% 30.48 in 5.0 mi Calm Calm - N/A   Haze
10:15 AM 30.9 °F - 25.2 °F 79% 30.49 in 7.0 mi Calm Calm - N/A   Overcast
10:35 AM 31.1 °F - 25.5 °F 80% 30.49 in 7.0 mi Calm Calm - N/A   Overcast
10:55 AM 31.6 °F - 25.3 °F 78% 30.49 in 7.0 mi Calm Calm - N/A   Overcast
11:15 AM 32.0 °F 28.7 °F 25.7 °F 78% 30.48 in 7.0 mi South 3.5 mph - N/A   Overcast
11:35 AM 32.4 °F - 25.9 °F 77% 30.47 in 7.0 mi Calm Calm - N/A   Overcast
11:55 AM 33.1 °F - 25.9 °F 75% 30.46 in 7.0 mi Calm Calm - N/A   Overcast
12:15 PM 33.8 °F - 25.7 °F 72% 30.44 in 10.0 mi Calm Calm - N/A   Overcast
12:35 PM 33.8 °F - 23.9 °F 67% 30.43 in 10.0 mi Calm Calm - N/A   Overcast
12:55 PM 34.0 °F 29.8 °F 23.9 °F 67% 30.42 in 10.0 mi SE 4.6 mph - N/A   Overcast
1:15 PM 34.7 °F 28.8 °F 23.9 °F 65% 30.41 in 10.0 mi SSE 6.9 mph - N/A   Overcast
1:35 PM 34.2 °F 31.2 °F 23.5 °F 65% 30.40 in 10.0 mi ESE 3.5 mph - N/A   Mostly Cloudy
1:55 PM 36.3 °F 31.6 °F 23.9 °F 61% 30.40 in 10.0 mi SSE 5.8 mph - N/A   Overcast
2:15 PM 34.7 °F 30.6 °F 23.7 °F 64% 30.39 in 10.0 mi ESE 4.6 mph - N/A   Mostly Cloudy
2:35 PM 36.0 °F - 24.3 °F 63% 30.39 in 10.0 mi Calm Calm - N/A   Scattered Clouds
2:55 PM 36.7 °F - 24.8 °F 62% 30.39 in 10.0 mi Calm Calm - N/A   Clear
3:15 PM 36.5 °F 33.9 °F 24.4 °F 62% 30.38 in 10.0 mi ESE 3.5 mph - N/A   Clear
3:35 PM 36.5 °F 31.0 °F 24.4 °F 62% 30.38 in 10.0 mi SE 6.9 mph - N/A   Clear
4:15 PM 36.5 °F 33.9 °F 24.6 °F 62% 30.38 in 10.0 mi SSE 3.5 mph - N/A   Clear
4:35 PM 36.0 °F 31.1 °F 24.4 °F 63% 30.37 in 10.0 mi SE 5.8 mph - N/A   Clear
4:55 PM 35.8 °F 30.9 °F 24.4 °F 63% 30.37 in 10.0 mi SE 5.8 mph - N/A   Clear
5:35 PM 34.5 °F - 24.1 °F 66% 30.37 in 10.0 mi Calm Calm - N/A   Clear
5:55 PM 33.4 °F - 24.3 °F 69% 30.36 in 10.0 mi Calm Calm - N/A   Clear
6:15 PM 31.1 °F - 24.3 °F 76% 30.36 in 10.0 mi Calm Calm - N/A   Clear
6:35 PM 29.8 °F - 23.9 °F 79% 30.35 in 10.0 mi Calm Calm - N/A   Clear
6:55 PM 29.5 °F - 24.1 °F 80% 30.34 in 10.0 mi Calm Calm - N/A   Clear
7:55 PM 26.6 °F - 23.2 °F 87% 30.35 in 10.0 mi Calm Calm - N/A   Clear
8:15 PM 25.7 °F - 22.3 °F 87% 30.34 in 10.0 mi Calm Calm - N/A   Clear
8:35 PM 25.7 °F - 23.0 °F 89% 30.33 in 7.0 mi Calm Calm - N/A   Clear
8:55 PM 24.8 °F - 22.5 °F 91% 30.32 in 7.0 mi Calm Calm - N/A   Clear
9:35 PM 23.0 °F - 20.7 °F 91% 30.30 in 7.0 mi Calm Calm - N/A   Clear
10:15 PM 23.7 °F - 21.4 °F 91% 30.29 in 7.0 mi Calm Calm - N/A   Clear
10:35 PM 23.0 °F - 20.7 °F 91% 30.28 in 5.0 mi Calm Calm - N/A   Clear
10:55 PM 22.5 °F - 20.3 °F 91% 30.27 in 7.0 mi Calm Calm - N/A   Clear
11:15 PM 21.7 °F - 19.6 °F 91% 30.27 in 5.0 mi Calm Calm - N/A   Clear
11:35 PM 22.1 °F - 20.1 °F 92% 30.26 in 5.0 mi Calm Calm - N/A   Clear
11:55 PM 21.6 °F - 19.8 °F 93% 30.26 in 5.0 mi Calm Calm - N/A   Clear